ORBCOMM FM37 [-]

Last updated on July 6, 2021, 3:36 p.m. UTC

1 33064U 08031E   21187.09163924 -.00000045  00000-0  24067-4 0  9994
2 33064  48.4433 311.0634 0006498 339.6836 190.4090 14.73072318701442
UTC
Height (km)
Latitude
Longitude
Inclination
Orbital Period
UTC large
Height (km)
Speed (km/s)
/
Latitude / Longitude
Inclination (degrees)
Orbital Period (minutes)
Azimuth
Elevation
Range (km)
Doppler Factor
iOS Compass Heading
iOS Angle